Location: Unspecified
(43.4680°N, 87.1740°E)
Time: 18:51:27
(UTC+00:00)

ADEOS Rocket - Pass Details

Date: 17 January 2020
Orbit: 859 x 1306 km, 98.7° (Epoch: 15 February)

Event Time Altitude Azimuth Distance (km) Brightness Sun altitude
Exits shadow 12:53:24 14° 26° (NNE) 2,572 4.9 -19.8°
Maximum altitude 12:58:55 52° 100° (E) 1,344 3.3 -20.8°
Drops below altitude 10° 13:05:47 10° 176° (S) 3,102 5.7 -22.0°
Sets 13:08:36 0° 181° (S) 4,119 6.4 -22.5°
